Weather History for Thedford, NE

Change the Weather History Date:

Wednesday, January 1, 2014

  Actual Average (KLBF) Record (KLBF)
Temperature  
Mean Temperature 19 °F 24 °F  
Max Temperature 26 °F 38 °F 64 °F (1997)
Min Temperature 12 °F 11 °F -20 °F (1924)
Degree Days  
Heating Degree Days 46 41  
Month to date heating degree days 41  
Since 1 July heating degree days 2821  
Cooling Degree Days 0 0  
Month to date cooling degree days 0  
Year to date cooling degree days 0  
Moisture  
Dew Point 14 °F    
Average Humidity 78    
Maximum Humidity 84    
Minimum Humidity 71    
Precipitation  
Precipitation 0.02 in 0.01 in 0.59 in (1976)
Month to date precipitation 0.01  
Year to date precipitation 0.01  
Snow  
Snow 0.00 in 0.20 in 11.90 in (1976)
Month to date snowfall 0.2  
Since 1 July snowfall 11.0  
Snow Depth -    
Sea Level Pressure  
Sea Level Pressure 30.17 in    
Wind  
Wind Speed 7 mph (North)    
Max Wind Speed 20 mph    
Max Gust Speed 24 mph    
Visibility 8 miles    
Events Snow    
T = Trace of Precipitation, MM = Missing Value Source: NWS Daily Summary

Daily Weather History Graph

Daily Weather History Graph

Search for Another Location

Airport:

Trip Planner

Search our weather history database for the weather conditions in past years. The results will help you decide how hot, cold, wet, or windy it might be!

Date:

Astronomy

Jan. 01, 2014 Rise Set
Actual Time 8:10 AM CST 5:21 PM CST
Civil Twilight 7:38 AM CST 5:53 PM CST
Nautical Twilight 7:03 AM CST 6:28 PM CST
Astronomical Twilight 6:29 AM CST 7:02 PM CST
Moon 8:01 AM CST (1/1) 6:10 PM CST (1/1)
Length of Visible Light 10h 14m
Length of Day
9h 11m
New Moon, 0% of the Moon is Illuminated
Jan 1
New Moon
Jan 7
First Quarter
Jan 15
Full
Jan 23
Last Quarter
Jan 30
New

Hourly Weather History & Observations

Time (CST) Temp. Windchill Dew Point Humidity Pressure Visibility Wind Dir Wind Speed Gust Speed Precip Events Conditions
12:15 AM 20.1 °F - 14.7 °F 80% 29.98 in 10.0 mi Calm Calm - N/A   Clear
12:35 AM 18.7 °F 10.6 °F 14.0 °F 82% 29.98 in 10.0 mi East 5.8 mph - N/A   Scattered Clouds
12:55 AM 18.9 °F 10.8 °F 13.6 °F 80% 29.98 in 10.0 mi East 5.8 mph - N/A   Overcast
1:15 AM 18.3 °F 9.1 °F 13.1 °F 80% 29.98 in 10.0 mi ENE 6.9 mph - N/A   Scattered Clouds
1:35 AM 18.1 °F 7.9 °F 12.9 °F 80% 29.99 in 10.0 mi NE 8.1 mph - N/A   Scattered Clouds
1:55 AM 18.0 °F 8.7 °F 12.7 °F 80% 30.00 in 10.0 mi ENE 6.9 mph - N/A   Scattered Clouds
2:15 AM 17.6 °F 6.4 °F 12.2 °F 79% 30.01 in 10.0 mi NE 9.2 mph - N/A   Overcast
2:35 AM 17.4 °F 7.1 °F 11.8 °F 79% 30.01 in 10.0 mi ENE 8.1 mph - N/A   Overcast
2:55 AM 17.2 °F 7.8 °F 11.8 °F 79% 30.01 in 10.0 mi ENE 6.9 mph - N/A   Overcast
3:15 AM 17.1 °F 7.6 °F 12.0 °F 81% 30.00 in 3.0 mi ENE 6.9 mph - N/A Snow Light Snow
3:35 AM 16.7 °F 8.3 °F 12.2 °F 82% 30.02 in 1.5 mi ENE 5.8 mph - N/A Snow Light Snow
3:55 AM 16.5 °F 6.9 °F 12.2 °F 83% 30.03 in 1.2 mi ENE 6.9 mph - N/A Snow Snow
4:15 AM 16.0 °F 8.8 °F 11.8 °F 84% 30.03 in 1.0 mi East 4.6 mph - 0.01 in Snow Snow
4:35 AM 15.8 °F 6.1 °F 11.8 °F 84% 30.04 in 1.2 mi NE 6.9 mph - 0.01 in Snow Snow
4:55 AM 15.6 °F 8.3 °F 11.7 °F 84% 30.05 in 1.2 mi NE 4.6 mph - 0.01 in Snow Snow
5:15 AM 15.4 °F 6.8 °F 11.3 °F 84% 30.05 in 1.5 mi NE 5.8 mph - N/A Snow Light Snow
5:35 AM 15.3 °F 2.8 °F 11.3 °F 84% 30.06 in 1.8 mi NNE 10.4 mph - N/A Snow Light Snow
5:55 AM 14.7 °F 4.8 °F 10.4 °F 83% 30.07 in 2.5 mi NE 6.9 mph - N/A Snow Light Snow
6:15 AM 14.7 °F 5.9 °F 10.4 °F 83% 30.08 in 2.0 mi NNE 5.8 mph - N/A Snow Light Snow
6:35 AM 14.5 °F 5.7 °F 10.4 °F 84% 30.07 in 3.0 mi NNE 5.8 mph - 0.01 in Snow Light Snow
6:55 AM 14.5 °F 7.1 °F 10.0 °F 82% 30.08 in 4.0 mi NNE 4.6 mph - 0.01 in Snow Light Snow
7:15 AM 14.5 °F 5.7 °F 9.5 °F 80% 30.10 in 10.0 mi NNE 5.8 mph - N/A   Overcast
7:35 AM 14.5 °F 3.6 °F 9.5 °F 80% 30.10 in 10.0 mi NNE 8.1 mph - N/A   Overcast
7:55 AM 13.8 °F 2.7 °F 9.0 °F 81% 30.12 in 10.0 mi North 8.1 mph - N/A   Overcast
8:15 AM 13.3 °F 3.0 °F 8.4 °F 81% 30.13 in 10.0 mi North 6.9 mph - N/A   Overcast
8:35 AM 12.9 °F 1.6 °F 8.2 °F 82% 30.14 in 10.0 mi NNE 8.1 mph - N/A   Overcast
8:55 AM 13.1 °F 4.0 °F 8.2 °F 81% 30.15 in 10.0 mi North 5.8 mph - N/A   Overcast
9:15 AM 13.1 °F 5.4 °F 8.4 °F 82% 30.16 in 7.0 mi North 4.6 mph - N/A   Overcast
9:35 AM 13.6 °F 3.5 °F 8.6 °F 80% 30.18 in 7.0 mi North 6.9 mph - N/A Snow Light Snow
9:55 AM 14.0 °F 3.9 °F 9.1 °F 81% 30.19 in 7.0 mi North 6.9 mph - N/A   Overcast
10:15 AM 14.9 °F 6.1 °F 9.7 °F 80% 30.19 in 7.0 mi North 5.8 mph - N/A Snow Light Snow
10:35 AM 15.6 °F 4.9 °F 10.8 °F 81% 30.21 in 7.0 mi North 8.1 mph - N/A Snow Light Snow
10:55 AM 16.3 °F 4.1 °F 11.3 °F 81% 30.21 in 5.0 mi North 10.4 mph 16.1 mph N/A Snow Light Snow
11:15 AM 16.7 °F 4.5 °F 11.5 °F 80% 30.22 in 7.0 mi North 10.4 mph - N/A Snow Light Snow
11:35 AM 16.9 °F 5.5 °F 11.5 °F 79% 30.22 in 7.0 mi North 9.2 mph 16.1 mph N/A Snow Light Snow
11:55 AM 17.6 °F 6.4 °F 11.7 °F 78% 30.21 in 7.0 mi North 9.2 mph - N/A Snow Light Snow
12:15 PM 17.8 °F 5.2 °F 12.0 °F 78% 30.21 in 7.0 mi North 11.5 mph - N/A Snow Light Snow
12:35 PM 18.3 °F 5.9 °F 12.2 °F 77% 30.21 in 7.0 mi North 11.5 mph 16.1 mph N/A Snow Light Snow
12:55 PM 18.9 °F 8.8 °F 12.2 °F 75% 30.21 in 10.0 mi North 8.1 mph - N/A Snow Light Snow
1:15 PM 19.2 °F 7.7 °F 12.2 °F 74% 30.21 in 10.0 mi North 10.4 mph 18.4 mph N/A   Overcast
1:35 PM 20.3 °F 12.5 °F 12.4 °F 71% 30.19 in 10.0 mi North 5.8 mph - N/A   Mostly Cloudy
1:55 PM 20.8 °F 13.2 °F 13.1 °F 72% 30.19 in 10.0 mi NW 5.8 mph - N/A   Overcast
2:15 PM 21.7 °F 13.2 °F 13.8 °F 72% 30.19 in 10.0 mi NW 6.9 mph - N/A   Overcast
2:35 PM 22.6 °F 14.3 °F 14.7 °F 72% 30.21 in 10.0 mi NNW 6.9 mph - N/A   Overcast
2:55 PM 22.8 °F 13.6 °F 14.9 °F 72% 30.21 in 10.0 mi NNW 8.1 mph - N/A   Overcast
3:15 PM 23.5 °F 14.5 °F 15.6 °F 72% 30.21 in 10.0 mi North 8.1 mph - N/A   Overcast
3:35 PM 23.9 °F 12.9 °F 16.0 °F 72% 30.23 in 10.0 mi NNW 11.5 mph - N/A   Overcast
3:55 PM 24.3 °F 13.9 °F 16.5 °F 72% 30.24 in 10.0 mi NNW 10.4 mph - N/A   Overcast
4:15 PM 24.4 °F 17.5 °F 16.7 °F 72% 30.25 in 10.0 mi NNW 5.8 mph - N/A   Overcast
4:35 PM 24.6 °F 15.8 °F 17.1 °F 73% 30.25 in 10.0 mi NNW 8.1 mph - N/A   Overcast
4:55 PM 24.8 °F 16.1 °F 17.6 °F 74% 30.26 in 10.0 mi North 8.1 mph - N/A   Overcast
5:15 PM 24.8 °F 16.9 °F 17.6 °F 74% 30.26 in 10.0 mi NNW 6.9 mph - N/A   Overcast
5:35 PM 25.0 °F 14.8 °F 18.1 °F 75% 30.27 in 10.0 mi NNW 10.4 mph - N/A   Overcast
5:55 PM 25.3 °F 14.7 °F 18.1 °F 74% 30.28 in 10.0 mi NNW 11.5 mph 16.1 mph N/A   Overcast
6:15 PM 25.5 °F 14.9 °F 18.3 °F 74% 30.28 in 10.0 mi NW 11.5 mph 17.3 mph N/A   Overcast
6:35 PM 25.5 °F 15.5 °F 18.5 °F 75% 30.28 in 10.0 mi NNW 10.4 mph - N/A   Overcast
6:55 PM 25.7 °F 15.1 °F 18.5 °F 74% 30.28 in 10.0 mi NNW 11.5 mph - N/A   Overcast
7:15 PM 25.7 °F 13.5 °F 18.3 °F 74% 30.28 in 10.0 mi NNW 15.0 mph 20.7 mph N/A   Overcast
7:35 PM 25.7 °F 15.1 °F 18.1 °F 73% 30.28 in 10.0 mi NNW 11.5 mph - N/A   Overcast
7:55 PM 25.7 °F 14.6 °F 18.1 °F 73% 30.29 in 10.0 mi NNW 12.7 mph - N/A   Overcast
8:15 PM 25.7 °F 11.9 °F 18.1 °F 73% 30.28 in 10.0 mi NNW 19.6 mph 24.2 mph N/A   Overcast
8:35 PM 25.7 °F 15.7 °F 18.5 °F 74% 30.29 in 10.0 mi NNW 10.4 mph - N/A   Overcast
8:55 PM 25.5 °F 15.5 °F 18.5 °F 75% 30.29 in 10.0 mi NNW 10.4 mph - N/A   Overcast
9:15 PM 25.7 °F 16.4 °F 19.0 °F 76% 30.28 in 10.0 mi NW 9.2 mph 16.1 mph N/A   Overcast
9:35 PM 25.7 °F 18.0 °F 19.2 °F 76% 30.28 in 10.0 mi WNW 6.9 mph - N/A   Overcast
9:55 PM 26.2 °F 18.6 °F 19.4 °F 75% 30.28 in 10.0 mi WNW 6.9 mph - N/A   Overcast
10:15 PM 26.4 °F 19.8 °F 19.4 °F 75% 30.28 in 10.0 mi NW 5.8 mph - N/A   Overcast
10:35 PM 26.4 °F 18.0 °F 19.4 °F 75% 30.28 in 10.0 mi NW 8.1 mph - N/A   Overcast
10:55 PM 26.1 °F 16.2 °F 19.8 °F 77% 30.28 in 10.0 mi NW 10.4 mph - N/A   Overcast
11:15 PM 26.2 °F 17.1 °F 19.4 °F 75% 30.28 in 10.0 mi NW 9.2 mph - N/A   Overcast
11:35 PM 25.9 °F 20.3 °F 19.6 °F 77% 30.27 in 10.0 mi NW 4.6 mph - N/A   Overcast
11:55 PM 25.7 °F 21.5 °F 19.6 °F 78% 30.26 in 10.0 mi NW 3.5 mph - N/A   Overcast